[[{"header":{"parameterUnit":"m.s-1","parameterCategory":1,"la1":30.2991,"la2":30.254,"lo1":-89.0895,"lo2":-89.0444,"dy":0.0017,"dx":0.0017,"nx":28,"ny":28,"refTime":"2024-06-03T09:00:00:Z","depth":0,"parameterNumber":2,"parameterNumberName":"U-component_of_WINDS"},"data":[0,0,0,0,0,0,0,0,0,0,0,0,0,0,0,0,0,0,0,0,0,0,0,0,0,0,0,0,0,0,0,0,0,0,0,0,0,0,0,0,0,0,0,0,0,0,0,0,0,0,0,0,0,0,0,0,0,0,-0.777,-0.777,0,-0.7743,-0.7742,-0.7742,-0.7772,-0.7773,-0.7774,-0.7775,-0.7744,-0.7742,-0.7741,0,0,0,0,0,0,0,0,0,0,0,0,0,-0.7846,-0.7844,-0.777,-0.777,-0.7769,-0.7743,-0.7742,-0.7742,-0.7772,-0.7773,-0.7774,-0.7776,-0.7745,-0.7743,-0.774,0,0,0,0,0,0,0,0,0,0,0,0,0,-0.7815,-0.7844,-0.777,-0.7781,-0.7782,-0.7743,-0.7742,-0.7742,-0.7771,-0.7773,-0.7775,-0.7776,-0.7746,-0.7743,-0.774,-0.7688,0,0,-0.7731,-0.773,0,0,0,0,0,0,0,0,-0.7817,-0.7812,-0.778,-0.778,-0.7781,-0.7763,-0.7758,-0.7724,-0.7771,-0.7775,-0.7775,-0.7777,-0.7749,-0.7746,-0.7737,-0.7686,-0.7685,-0.7731,-0.7729,-0.7728,-0.7727,0,0,0,0,0,0,0,-0.7819,-0.7814,-0.7759,-0.7779,-0.778,-0.7787,-0.7784,-0.7751,-0.7753,-0.7775,-0.7777,-0.7774,-0.7749,-0.7739,-0.7736,-0.7685,-0.7731,-0.7729,-0.7727,-0.7726,-0.7588,-0.7587,0,0,0,0,0,0,-0.782,-0.7815,-0.776,-0.7758,-0.7804,-0.7784,-0.7781,-0.7767,-0.7753,-0.7753,-0.7772,-0.7775,-0.7743,-0.774,-0.7735,-0.7672,-0.7728,-0.7726,-0.7724,-0.759,-0.7588,-0.7586,0,0,0,0,0,0,-0.7822,-0.7815,-0.7761,-0.7787,-0.7781,-0.7781,-0.7764,-0.7765,-0.7755,-0.7751,-0.7751,-0.7762,-0.7745,-0.7739,-0.7699,-0.7671,-0.7724,-0.7722,-0.7593,-0.759,-0.7587,-0.7545,0,0,0,0,0,0,-0.7824,-0.7815,-0.7796,-0.7787,-0.7779,-0.7726,-0.7763,-0.7763,-0.7751,-0.7754,-0.7741,-0.7741,-0.7746,-0.7703,-0.7696,-0.7668,-0.7719,-0.7595,-0.7591,-0.7588,-0.7548,-0.7541,-0.7534,0,0,0,0,0,-0.7826,-0.7785,-0.7795,-0.7788,-0.7756,-0.7725,-0.772,-0.7727,-0.7748,-0.7728,-0.7725,-0.7741,-0.7676,-0.7699,-0.7691,-0.7662,-0.7597,-0.7592,-0.7588,-0.7552,-0.7542,-0.7534,0,0,0,0,0,0,-0.779,-0.7784,-0.7795,-0.775,-0.7737,-0.773,-0.7705,-0.7717,-0.7698,-0.7702,-0.7712,-0.7708,-0.7665,-0.766,-0.7686,-0.761,-0.764,-0.7633,-0.7614,-0.7605,-0.7598,-0.7599,-0.7717,0,0,0,0,0,-0.7777,-0.7754,-0.7749,-0.7709,-0.7703,-0.7705,-0.7692,-0.7698,-0.7686,-0.768,-0.7675,-0.7661,-0.7637,-0.7622,-0.76,-0.7549,-0.7545,-0.7525,-0.7517,-0.7511,-0.7505,-0.7476,-0.7466,-0.7572,-0.7572,-0.7572,0,0,-0.775,-0.7743,-0.7728,-0.7702,-0.7693,-0.7667,-0.77,-0.7672,-0.7652,-0.7676,-0.7637,-0.7633,-0.7618,-0.7572,-0.7551,-0.7566,-0.7475,-0.7506,-0.7501,-0.7498,-0.747,-0.746,-0.7451,-0.7569,-0.7569,-0.757,0,0,-0.7686,-0.7679,-0.7645,-0.7635,-0.7622,-0.7624,-0.7616,-0.7606,-0.7604,-0.7566,-0.7583,-0.7559,-0.7519,-0.7507,-0.7496,-0.7427,-0.744,-0.742,-0.7381,-0.7352,-0.7344,-0.7336,-0.731,-0.73,-0.7415,-0.7414,-0.7414,0,-0.7652,-0.7615,-0.7625,-0.7595,-0.7582,-0.7604,-0.7568,-0.7559,-0.7538,-0.7529,-0.7546,-0.7495,-0.7487,-0.7437,-0.7421,-0.7412,-0.7401,-0.742,-0.7344,-0.7337,-0.733,-0.7305,-0.7295,-0.7412,-0.7412,-0.7412,-0.7413,0,-0.7574,-0.7547,-0.7521,-0.7501,-0.7486,-0.7453,-0.7457,-0.7441,-0.7449,-0.7448,-0.7408,-0.74,-0.7375,-0.7365,-0.7372,-0.7316,-0.7325,-0.7343,-0.7373,-0.7317,-0.7293,-0.7284,-0.7408,-0.7409,-0.741,-0.741,0,0,-0.7484,-0.7471,-0.7461,-0.7452,-0.7439,-0.7418,-0.7386,-0.7363,-0.7347,-0.7333,-0.7305,-0.727,-0.7287,-0.7274,-0.7281,-0.7256,-0.72,-0.7277,-0.7277,-0.7261,-0.7134,-0.7118,-0.7107,-0.7209,-0.7208,-0.7206,-0.7134,0,-0.7418,-0.7363,-0.7371,-0.7317,-0.7291,-0.7312,-0.7283,-0.7272,-0.7271,-0.7248,-0.7247,-0.7221,-0.7246,-0.7238,-0.7215,-0.7211,-0.7174,-0.7217,-0.7181,-0.718,-0.7181,-0.7095,-0.7079,-0.7011,-0.7125,-0.7124,-0.7123,0,-0.7333,-0.7316,-0.7259,-0.7249,-0.7239,-0.7213,-0.7192,-0.7171,-0.7158,-0.7159,-0.7144,-0.7155,-0.7122,-0.7154,-0.7107,-0.7136,-0.7122,-0.7118,-0.7116,-0.711,-0.7146,-0.7085,-0.699,-0.6979,-0.7109,-0.711,-0.7111,0,-0.7271,-0.7234,-0.7194,-0.7186,-0.7174,-0.7155,-0.7149,-0.7138,-0.7123,-0.7105,-0.7095,-0.7073,-0.7061,-0.7043,-0.7047,-0.7071,-0.6998,-0.7031,-0.6996,-0.6995,-0.6977,-0.6978,-0.6876,-0.6973,-0.6973,-0.6973,-0.6973,0,-0.7195,-0.7158,-0.7166,-0.7141,-0.7101,-0.7111,-0.7071,-0.7067,-0.7057,-0.7031,-0.7048,-0.7024,-0.7032,-0.7008,-0.7011,-0.697,-0.6965,-0.6963,-0.6964,-0.696,-0.696,-0.6949,-0.6953,-0.697,-0.6971,-0.6971,-0.6972,0,-0.7117,-0.7121,-0.7079,-0.7071,-0.7069,-0.7039,-0.7032,-0.7008,-0.7009,-0.6976,-0.6969,-0.6969,-0.6941,-0.6944,-0.6913,-0.6915,-0.6863,-0.6871,-0.6867,-0.6868,-0.6832,-0.6834,-0.6717,-0.6702,-0.6811,-0.681,-0.6809,0,-0.7067,-0.704,-0.7029,-0.7013,-0.7006,-0.698,-0.6965,-0.6974,-0.6958,-0.6941,-0.6918,-0.6892,-0.6871,-0.6826,-0.6822,-0.6798,-0.6804,-0.6765,-0.68,-0.6796,-0.68,-0.68,-0.6796,-0.6756,-0.6755,-0.6754,-0.6753,0,-0.6977,-0.698,-0.6958,-0.6936,-0.6918,-0.6902,-0.6887,-0.6873,-0.688,-0.6861,-0.6832,-0.6816,-0.6784,-0.6757,-0.6734,-0.6727,-0.674,-0.6743,-0.6733,-0.6727,-0.6725,-0.6723,-0.6845,-0.6745,-0.6746,-0.6746,-0.6747,-0.6747,-0.691,-0.6885,-0.6874,-0.6848,-0.6838,-0.6824,-0.6801,-0.6798,-0.6775,-0.675,-0.6757,-0.6724,-0.6711,-0.6682,-0.6672,-0.6646,-0.666,-0.6646,-0.6642,-0.6638,-0.6632,-0.6732,-0.6642,-0.6642,-0.6643,-0.6643,-0.6643,0,-0.6818,-0.6811,-0.6788,-0.6767,-0.6746,-0.6763,-0.6747,-0.6728,-0.6699,-0.6686,-0.6666,-0.6632,-0.6606,-0.6601,-0.6576,-0.6555,-0.6561,-0.6548,-0.6548,-0.6546,-0.6623,-0.6632,-0.6544,-0.6544,-0.6544,-0.6544,-0.6544,-0.6544,-0.6768,-0.6727,-0.6729,-0.6683,-0.6676,-0.6645,-0.6634,-0.662,-0.661,-0.6572,-0.655,-0.6547,-0.6537,-0.6511,-0.6487,-0.6486,-0.6474,-0.6459,-0.646,-0.6531,-0.6541,-0.655,-0.6559,-0.6457,-0.6457,-0.6385,-0.6384,-0.6384]},{"header":{"parameterUnit":"m.s-1","parameterCategory":1,"la1":30.2991,"la2":30.254,"lo1":-89.0895,"lo2":-89.0444,"dy":0.0017,"dx":0.0017,"nx":28,"ny":28,"refTime":"2024-06-03T09:00:00:Z","depth":0,"parameterNumber":3,"parameterNumberName":"V-component_of_WINDS"},"data":[0,0,0,0,0,0,0,0,0,0,0,0,0,0,0,0,0,0,0,0,0,0,0,0,0,0,0,0,0,0,0,0,0,0,0,0,0,0,0,0,0,0,0,0,0,0,0,0,0,0,0,0,0,0,0,0,0,0,5.9634,5.9635,0,5.9743,5.9744,5.9745,5.9716,5.9713,5.9711,5.9709,5.9816,5.982,5.9825,0,0,0,0,0,0,0,0,0,0,0,0,0,5.9396,5.94,5.9634,5.9635,5.9637,5.9743,5.9744,5.9746,5.9716,5.9713,5.9711,5.9708,5.9814,5.982,5.9826,0,0,0,0,0,0,0,0,0,0,0,0,0,5.9501,5.9402,5.9634,5.9635,5.9636,5.9742,5.9744,5.9746,5.9717,5.9713,5.971,5.9707,5.9812,5.9819,5.9826,5.9937,0,0,5.9849,5.9852,0,0,0,0,0,0,0,0,5.9495,5.951,5.9633,5.9635,5.9636,5.9712,5.9699,5.981,5.9717,5.9686,5.9709,5.9705,5.9784,5.9793,5.9821,5.9942,5.9947,5.9849,5.9854,5.9857,5.9859,0,0,0,0,0,0,0,5.9488,5.9505,5.9677,5.9635,5.9637,5.9628,5.964,5.972,5.9752,5.9688,5.9686,5.97,5.9784,5.9814,5.9823,5.9948,5.9849,5.9856,5.986,5.9863,6.0165,6.0169,0,0,0,0,0,0,5.948,5.9499,5.9673,5.968,5.9557,5.9635,5.9648,5.9691,5.9751,5.9757,5.9703,5.9698,5.9803,5.9814,5.9826,5.996,5.9857,5.9864,5.9868,6.0162,6.0166,6.017,0,0,0,0,0,0,5.9475,5.9496,5.9669,5.9589,5.9611,5.9643,5.9692,5.9695,5.9725,5.9762,5.9767,5.9728,5.9801,5.9816,5.991,5.9963,5.9867,5.9874,6.0157,6.0163,6.0168,6.0227,0,0,0,0,0,0,5.9468,5.9494,5.9538,5.9591,5.9615,5.9753,5.9695,5.97,5.9738,5.9733,5.9786,5.9792,5.9799,5.9899,5.9917,5.9971,5.9879,6.0153,6.016,6.0166,6.022,6.0234,6.0245,0,0,0,0,0,5.946,5.9549,5.954,5.9561,5.967,5.9756,5.9769,5.9778,5.9743,5.9786,5.9809,5.979,5.9954,5.9909,5.9929,5.9986,6.0149,6.0158,6.0166,6.0215,6.0231,6.0245,0,0,0,0,0,0,5.95,5.9556,5.9547,5.9656,5.9701,5.975,5.9805,5.9795,5.985,5.9843,5.9849,5.9861,5.9957,5.9981,5.993,6.0096,6.0046,6.0059,6.0077,6.0093,6.0105,6.0097,5.9885,0,0,0,0,0,5.9522,5.9588,5.9632,5.9724,5.9748,5.9773,5.981,5.9813,5.9859,5.9878,5.9908,5.9953,6.0015,6.0055,6.0114,6.0224,6.0234,6.0273,6.0285,6.0295,6.0305,6.0365,6.0382,6.0197,6.0197,6.0197,0,0,5.9566,5.9605,5.9646,5.9733,5.9769,5.9836,5.9789,5.9862,5.9911,5.9888,5.9979,6.0003,6.0053,6.0156,6.0203,6.0179,6.0359,6.0305,6.0313,6.0318,6.0375,6.0393,6.0408,6.0202,6.0201,6.02,0,0,5.9683,5.9719,5.98,5.9837,5.9892,5.9908,5.9928,5.9979,5.9994,6.0086,6.007,6.0128,6.0234,6.0271,6.0303,6.0434,6.0418,6.0453,6.0517,6.0575,6.0589,6.0602,6.0648,6.0665,6.0463,6.0463,6.0463,0,5.9731,5.9833,5.9842,5.9917,5.9955,5.994,6.002,6.0055,6.0126,6.0152,6.0125,6.0258,6.0291,6.0401,6.0433,6.046,6.0481,6.0446,6.0587,6.06,6.0612,6.0656,6.0673,6.0467,6.0467,6.0466,6.0466,0,5.989,5.9961,6.0019,6.009,6.0134,6.0212,6.0231,6.0275,6.0273,6.0292,6.0385,6.0424,6.049,6.0517,6.0515,6.0627,6.0611,6.0585,6.0536,6.0634,6.0675,6.0692,6.0473,6.0471,6.047,6.0469,0,0,6.0034,6.0109,6.013,6.0162,6.0222,6.0276,6.0352,6.0419,6.0456,6.0505,6.0569,6.0659,6.0636,6.0673,6.0676,6.0727,6.0827,6.0695,6.0696,6.0718,6.0952,6.097,6.0989,6.0817,6.082,6.0823,6.0947,0,6.0155,6.0291,6.0301,6.0423,6.0488,6.0474,6.054,6.0583,6.0603,6.0659,6.068,6.0744,6.0709,6.0731,6.0781,6.0804,6.0874,6.0795,6.0874,6.0877,6.0862,6.1011,6.1031,6.1146,6.0963,6.0966,6.0968,0,6.0314,6.037,6.0499,6.0551,6.0578,6.0638,6.0699,6.0754,6.0802,6.0813,6.0854,6.085,6.0926,6.0875,6.0979,6.0926,6.0959,6.0975,6.0979,6.0987,6.0928,6.1022,6.1183,6.12,6.0994,6.0992,6.099,0,6.0406,6.0513,6.0605,6.0632,6.0694,6.0736,6.0764,6.0809,6.0848,6.0901,6.0927,6.0988,6.1021,6.1068,6.1079,6.1041,6.1184,6.1133,6.1193,6.1193,6.1223,6.1221,6.1392,6.1245,6.1245,6.1245,6.1244,0,6.054,6.0619,6.0647,6.0703,6.0791,6.0801,6.0887,6.0912,6.0952,6.1011,6.1003,6.1058,6.107,6.1128,6.1137,6.1222,6.1237,6.1246,6.1248,6.1247,6.1246,6.1268,6.126,6.1249,6.1248,6.1248,6.1247,0,6.0657,6.0679,6.0777,6.0828,6.0843,6.0905,6.0948,6.1001,6.1019,6.1094,6.1112,6.1141,6.1208,6.1225,6.1304,6.131,6.1411,6.1404,6.1395,6.1394,6.1453,6.1448,6.1644,6.167,6.1507,6.1509,6.151,0,6.0741,6.0802,6.086,6.09,6.093,6.0994,6.1035,6.1047,6.1089,6.1149,6.1194,6.1261,6.1315,6.1422,6.1449,6.1509,6.1504,6.1569,6.1513,6.151,6.1505,6.1501,6.1506,6.1579,6.1581,6.1583,6.1584,0,6.0887,6.0895,6.0955,6.1019,6.1068,6.1118,6.1166,6.1199,6.1218,6.1266,6.1335,6.1377,6.1459,6.1525,6.1586,6.1612,6.1601,6.1601,6.1618,6.1618,6.161,6.1614,6.1423,6.1597,6.1595,6.1594,6.1594,6.1593,6.099,6.1043,6.1093,6.116,6.1198,6.1243,6.1295,6.1321,6.138,6.1449,6.1452,6.1527,6.1573,6.1655,6.1684,6.1742,6.1722,6.1747,6.1753,6.1759,6.1764,6.1601,6.1753,6.1753,6.1753,6.1752,6.1752,0,6.1135,6.1167,6.1228,6.1297,6.1349,6.1336,6.1388,6.1432,6.15,6.1544,6.1598,6.1678,6.1741,6.1773,6.1836,6.1876,6.1872,6.1892,6.1889,6.1895,6.1779,6.1757,6.1894,6.1894,6.1894,6.1894,6.1894,6.1894,6.1217,6.1307,6.1321,6.1429,6.1459,6.1535,6.1566,6.1607,6.1643,6.1733,6.1786,6.1807,6.1846,6.1912,6.1969,6.1977,6.2,6.2022,6.2027,6.1918,6.1903,6.1889,6.1869,6.2027,6.2028,6.2139,6.214,6.214]}]]